RH
57 58 58 57 55 52 52 52 52 52 48 42 38 34 32 33 34 32 29 25 22 19 19 24 31 38 44 47 47 46 49 53 51 48 50 53 53 53 51 54 56 61 75 82 73 63 58 57 58 61 67 70
48 50 52 53 53 51 49 47 47 49 49 49 48 44 42 42 41 38 37 34 30 26 22 19 20 25 30 36 40 42 44 48 50 49 49 51 54 55 54 54 55 59 71 84 82 68 58 54 53 53 58 63
46 46 46 47 47 47 46 45 44 43 44 46 47 48 48 49 47 44 43 40 37 34 32 28 23 21 21 25 28 33 37 40 44 47 47 49 53 55 56 57 58 60 69 87 92 80 67 59 54 52 52 55
47 47 46 46 45 45 44 44 44 43 43 43 44 45 46 48 50 49 46 44 42 39 38 37 34 29 24 22 22 25 27 31 35 39 43 45 48 51 53 56 59 62 67 87 103 95 80 70 61 57 53 51
34 36 37 39 39 39 39 39 40 41 42 43 44 44 43 44 46 48 48 46 45 43 41 40 39 38 34 29 25 24 23 25 26 28 33 37 42 45 47 50 55 61 64 81 106 107 94 83 70 62 58 54
23 24 25 25 26 26 27 28 29 30 33 36 40 42 43 43 44 45 46 46 45 44 44 43 41 40 39 38 34 30 27 25 23 22 23 27 32 36 40 42 46 53 56 68 96 113 107 96 84 70 63 59
23 24 24 24 23 22 21 20 19 19 21 24 28 34 38 41 43 44 45 45 44 43 44 44 43 42 40 39 39 38 36 32 27 23 21 21 22 26 29 32 37 42 46 52 75 108 115 105 97 83 70 65
23 24 25 26 27 27 27 25 23 20 18 17 18 21 26 32 37 41 43 45 45 44 43 44 44 44 42 40 39 38 39 39 36 32 27 23 19 19 21 23 26 28 34 39 54 91 114 110 105 97 85 76
19 21 22 23 25 26 28 29 30 29 26 23 19 17 17 20 25 32 39 43 45 45 44 44 44 43 43 42 40 38 38 38 39 38 36 32 26 20 18 18 19 19 22 27 36 67 105 113 103 97 94 89
15 16 18 19 21 22 23 24 27 29 30 30 28 24 20 16 16 19 27 35 42 46 46 45 44 44 43 42 41 40 39 38 37 38 38 37 34 29 24 20 18 17 16 18 21 38 78 106 100 89 86 88
13 13 14 15 16 17 19 20 21 23 25 27 29 30 29 25 20 16 16 21 29 38 45 48 48 46 45 44 43 41 41 40 38 37 37 37 36 35 32 28 23 20 16 15 16 19 39 71 86 82 73 73
15 14 13 13 13 14 14 16 17 19 20 21 23 25 28 30 28 25 20 16 17 21 30 41 48 51 49 48 46 44 43 42 41 40 39 37 36 36 36 35 31 27 22 18 16 17 21 34 50 57 56 54
18 16 15 14 14 13 13 13 13 14 16 17 19 20 21 24 27 28 28 25 20 16 17 22 33 44 50 51 50 49 47 45 44 43 42 40 38 37 37 38 37 34 31 26 21 19 19 22 27 30 33 34
19 18 18 17 15 14 14 13 13 12 12 13 14 17 18 19 21 23 26 28 28 25 21 17 18 26 36 44 49 51 52 50 48 46 45 45 43 40 40 41 41 41 39 37 32 27 23 22 23 23 21 20
17 18 18 18 17 16 15 14 13 13 12 12 11 12 14 16 18 19 21 23 26 28 28 26 22 19 20 26 33 41 47 52 53 51 49 49 48 44 43 44 45 47 46 45 44 40 35 29 26 23 21 18
16 16 16 17 17 18 17 16 15 14 13 12 12 11 11 12 13 15 18 19 21 23 26 28 29 28 24 20 19 22 29 39 47 52 54 54 52 48 45 46 48 50 52 52 52 52 49 43 37 30 26 22
15 15 16 16 17 17 17 18 17 16 15 14 13 12 12 12 11 12 13 15 17 19 21 23 26 29 30 29 26 21 18 20 27 37 47 52 55 54 51 48 49 51 55 57 58 59 59 56 50 43 36 30
16 15 15 15 15 16 16 17 17 17 17 17 16 14 13 12 12 12 12 12 13 15 17 19 22 24 27 30 31 31 27 21 18 19 26 34 43 50 52 52 51 52 55 59 62 64 65 64 61 55 49 42
18 17 16 15 15 15 15 16 17 17 17 18 18 17 17 15 14 13 13 13 14 14 14 15 17 20 22 25 27 31 33 32 28 23 18 18 23 31 39 45 50 53 55 58 62 65 68 70 69 64 59 53
18 18 17 17 16 15 15 15 15 16 17 17 18 18 18 18 17 16 14 14 14 14 15 15 15 15 17 20 23 25 28 31 33 33 30 24 19 18 21 27 35 44 52 57 60 63 66 70 71 70 66 62
15 16 16 16 16 16 15 15 15 15 15 16 17 17 17 17 18 18 17 16 15 14 14 15 16 16 15 15 17 19 22 25 27 30 32 33 30 25 20 17 19 25 35 47 55 61 65 67 69 70 69 68
11 12 13 14 15 15 15 15 15 14 14 15 15 15 16 16 16 17 17 17 17 16 15 14 15 15 16 16 15 15 16 19 22 24 26 28 31 32 30 25 20 17 18 25 37 48 58 64 67 67 68 68
8 9 10 11 12 12 13 13 14 14 14 14 14 13 13 14 15 15 16 16 17 17 17 16 15 14 14 15 16 15 15 15 16 18 21 24 25 27 30 31 30 25 20 16 18 26 37 49 58 64 66 66
6 7 7 8 8 9 10 10 11 12 12 13 13 12 12 12 13 13 14 15 15 15 16 17 17 16 15 14 14 14 15 15 15 15 15 18 21 23 25 27 30 31 30 26 20 17 19 26 37 48 56 61
6 6 6 6 6 7 7 8 8 8 9 10 10 11 11 11 11 12 13 13 14 14 15 15 16 16 16 16 15 15 15 15 15 16 15 15 15 18 20 23 26 28 30 32 32 28 22 18 19 24 34 44
6 5 5 5 5 5 5 6 6 6 7 7 8 8 8 9 9 10 11 12 12 12 13 13 14 15 16 16 17 17 16 16 15 15 16 16 15 15 16 17 20 23 26 29 33 35 35 30 23 18 18 23
6 5 5 5 5 5 5 5 5 5 6 6 6 6 7 7 8 9 10 10 10 10 11 12 12 13 15 15 16 17 17 17 17 17 16 16 16 16 16 16 16 17 19 23 26 30 35 38 36 31 24 19
6 6 5 5 5 5 5 5 5 5 5 6 6 6 6 6 7 8 9 9 9 9 9 10 10 11 13 14 15 16 16 17 17 18 19 18 17 16 16 17 16 16 15 17 19 22 27 31 36 39 37 33
6 6 5 5 5 5 5 5 5 5 5 5 5 5 6 6 6 6 7 8 8 8 8 8 8 9 10 11 13 14 15 16 17 17 18 18 19 18 18 17 17 17 16 16 16 17 19 21 26 32 35 38
5 5 5 5 5 4 4 4 4 5 5 5 5 5 5 5 6 6 6 7 6 6 7 7 7 7 8 9 10 11 12 13 15 16 16 17 17 18 19 19 18 18 17 17 17 16 16 16 18 21 25 31
4 4 4 4 4 4 4 4 5 5 5 5 5 5 5 5 5 5 5 6 6 6 6 6 6 6 7 7 8 9 10 11 12 13 14 15 15 16 16 17 18 19 19 18 17 16 17 17 17 16 17 21
Wind_Speed
116 116 116 115 115 115 114 115 115 115 116 116 115 114 112 111 111 111 110 109 108 107 106 106 106 106 106 106 105 104 102 101 100 98 97 96 96 94 93 92 91 90 91 95 96 95 93 90 87 85 83 83
120 119 119 119 119 119 118 118 118 118 118 118 118 118 116 115 115 115 114 113 112 111 109 108 108 108 108 108 108 107 106 104 103 102 100 99 99 97 96 94 93 92 93 95 98 98 96 94 91 89 87 86
122 122 122 122 122 122 122 121 121 121 121 121 121 121 119 119 119 119 118 117 116 114 113 112 111 110 109 109 109 109 108 107 106 105 104 103 102 101 99 98 96 95 94 96 99 100 99 97 95 93 91 90
123 124 124 124 125 125 124 124 124 124 123 123 123 123 122 122 121 122 121 121 120 118 116 115 114 113 112 111 111 111 110 110 109 108 107 106 105 104 103 101 100 98 97 97 100 102 102 100 98 97 95 93
121 122 123 124 125 125 126 126 126 126 126 125 125 125 125 124 124 124 124 124 123 122 120 119 117 116 115 114 114 112 112 112 111 111 110 109 108 107 106 105 103 102 101 100 102 104 105 104 102 100 99 96
118 119 120 121 121 122 123 124 125 126 126 126 126 126 126 126 126 125 126 126 126 125 124 123 121 120 118 117 116 115 114 114 113 113 112 111 110 109 109 108 106 105 104 103 104 106 107 107 106 103 102 100
118 118 118 118 118 119 119 120 121 123 124 125 126 126 127 127 127 127 127 127 127 127 126 126 125 124 122 121 119 118 117 117 116 114 114 114 112 111 110 110 109 108 107 106 106 108 110 111 109 107 105 103
120 120 120 119 119 119 118 118 118 119 120 122 123 125 126 127 127 127 127 127 128 128 128 128 127 126 125 124 123 121 120 119 118 117 116 116 115 114 112 112 111 110 109 108 108 109 112 113 112 110 108 107
122 122 122 122 122 122 121 120 119 118 119 119 120 121 123 125 127 128 128 128 128 128 129 129 129 128 128 127 126 125 123 122 121 120 119 118 118 116 115 114 113 111 110 110 110 111 113 115 115 113 112 110
122 122 123 124 124 124 124 123 123 122 121 120 119 119 120 122 124 126 128 129 129 129 129 129 130 130 130 129 128 128 127 125 124 123 122 121 120 119 117 116 115 113 112 111 112 112 113 116 116 116 114 113
121 122 123 123 124 125 126 126 126 125 125 124 122 121 121 121 121 123 125 127 129 129 130 130 130 130 131 131 130 130 129 128 127 126 125 124 122 121 120 119 117 116 115 114 113 113 114 116 117 118 117 115
121 122 123 123 124 124 125 126 127 127 127 127 126 125 124 123 122 122 122 124 126 128 129 130 131 131 131 131 131 131 131 130 129 129 128 127 125 124 123 121 120 118 117 116 116 115 115 116 117 119 118 117
120 121 122 123 124 125 125 126 126 127 128 129 129 128 128 127 126 125 124 123 124 125 126 128 130 132 132 133 133 132 132 132 132 131 130 129 128 127 126 124 123 121 120 119 118 118 117 117 118 119 119 118
120 120 121 122 124 125 126 126 126 127 127 128 129 130 130 130 129 128 127 126 125 124 124 125 127 129 131 133 134 134 133 133 133 133 132 131 130 130 129 127 126 124 122 122 121 120 120 119 119 120 120 120
121 121 121 121 122 123 125 126 127 128 128 128 128 129 130 131 131 131 130 130 128 127 125 125 125 126 128 130 133 134 135 135 135 134 133 133 132 132 131 130 128 127 125 124 123 122 122 122 121 121 122 121
121 121 122 122 122 122 123 124 126 127 128 128 128 128 129 129 130 131 132 132 131 130 129 127 126 125 125 127 129 131 133 135 135 136 135 135 134 134 133 132 131 129 128 126 126 125 124 124 124 123 124 124
120 121 122 123 123 124 124 124 124 125 126 127 128 128 129 129 129 130 130 131 132 132 132 130 129 128 127 126 126 128 129 132 134 135 136 136 136 136 135 134 133 131 130 129 128 127 126 126 125 125 126 126
120 120 121 122 123 124 124 124 124 124 124 124 126 127 128 129 129 129 129 130 130 131 132 132 132 131 130 129 128 127 127 128 130 132 134 136 137 137 137 136 135 134 132 132 131 130 129 128 128 128 127 127
121 121 121 121 122 122 123 124 124 125 125 125 125 125 126 128 129 129 130 129 129 129 130 131 132 132 132 132 131 130 129 129 128 129 130 132 134 136 137 138 137 136 135 134 133 132 131 130 130 129 129 129
120 121 121 122 122 122 122 123 124 125 126 126 126 127 127 127 127 128 129 130 130 130 130 130 130 131 132 133 133 133 132 131 131 130 130 130 131 133 135 137 138 138 138 137 136 135 134 133 132 132 131 131
119 119 120 121 122 122 122 123 123 124 125 126 127 127 128 127 127 127 128 129 130 131 131 131 130 130 131 132 133 134 134 134 134 133 132 132 131 131 132 134 136 138 138 139 138 137 137 136 135 134 133 133
117 117 118 119 120 121 122 122 122 123 124 125 126 126 127 127 127 127 127 128 128 129 130 131 131 131 131 131 132 133 134 135 136 136 136 135 134 133 132 132 133 135 136 138 139 139 139 139 138 137 136 136
113 115 116 117 118 119 119 120 120 121 122 123 123 124 125 126 126 127 127 127 128 128 128 129 130 131 132 132 132 132 133 134 135 136 137 137 137 136 135 134 133 133 134 135 136 138 139 140 140 139 139 139
110 111 112 113 114 115 116 117 117 118 119 120 121 122 122 122 123 124 125 126 127 127 128 128 128 129 130 131 132 132 132 133 133 134 136 137 137 138 137 137 136 135 134 133 134 135 137 139 140 141 141 141
107 108 109 109 110 110 111 112 113 114 115 116 117 118 119 119 120 121 122 124 125 126 127 127 127 128 128 129 130 130 131 132 133 133 134 134 136 137 138 138 138 138 136 135 134 134 135 136 137 138 140 141
104 105 106 106 106 106 106 106 107 108 110 111 112 113 114 115 115 116 119 121 123 123 125 125 126 127 127 127 128 128 129 130 131 132 133 133 134 135 136 138 139 140 139 138 137 136 136 135 135 135 136 138
100 101 102 101 101 101 101 101 102 103 104 106 107 108 109 110 111 112 115 118 119 120 121 123 123 124 125 126 127 127 128 128 129 130 132 133 133 134 134 135 137 139 140 140 140 139 138 137 137 136 135 135
97 98 98 98 97 97 97 97 98 99 100 102 103 104 104 105 106 108 111 115 116 117 118 119 120 121 121 123 124 126 127 127 128 129 131 132 132 133 134 134 135 137 138 139 140 141 141 140 139 138 137 136
95 96 96 95 94 94 95 95 96 97 97 98 99 100 101 101 102 104 107 111 113 114 115 116 117 117 118 119 121 123 124 125 127 129 130 131 132 133 133 134 134 135 136 137 137 139 140 141 142 141 139 139
93 94 94 93 93 93 93 92 92 94 95 95 96 97 98 99 100 102 104 107 109 110 110 112 113 114 115 117 119 120 122 123 125 127 129 131 132 133 133 133 134 134 135 136 136 136 137 139 140 141 141 141
88 89 89 90 90 89 89 88 89 91 93 93 94 95 96 97 98 100 102 104 106 106 107 109 109 111 112 114 116 117 119 121 123 125 127 129 131 132 133 133 133 133 134 136 136 136 136 136 138 139 140 141
Wind_Direction
260 260 259 259 259 259 258 259 259 259 259 260 259 259 258 258 257 257 256 255 254 253 252 251 250 249 249 249 249 247 246 246 245 244 244 245 245 244 243 243 243 244 246 249 250 248 246 244 241 240 239 239
260 259 259 258 258 258 258 258 257 257 258 258 258 258 258 257 257 257 256 255 254 254 253 252 251 250 249 249 249 248 247 246 246 245 244 244 244 244 243 243 243 243 245 247 250 250 248 246 243 241 240 240
260 259 259 258 258 258 257 257 257 257 256 256 257 257 257 256 256 256 256 256 255 254 253 252 252 251 249 249 248 249 248 247 246 246 245 244 244 244 243 243 242 242 243 246 248 250 249 248 246 244 241 240
259 259 259 258 258 258 257 257 256 256 256 255 255 255 255 255 255 255 255 255 255 255 253 252 252 251 250 249 248 248 248 248 247 246 245 244 243 243 243 243 242 242 242 243 246 248 249 249 247 246 244 241
258 258 258 258 258 258 257 257 256 256 255 255 254 254 254 254 253 254 254 255 255 255 254 253 252 251 250 250 249 248 248 247 247 247 246 245 244 243 243 242 242 242 241 242 244 246 247 248 247 247 246 244
256 256 256 256 256 257 257 256 256 256 255 254 254 254 253 253 253 252 253 253 254 254 254 254 253 252 251 250 249 249 248 247 247 247 247 246 245 244 243 242 242 241 241 240 241 244 246 246 247 246 246 245
255 255 255 255 255 255 255 255 255 255 255 254 254 253 253 252 252 252 251 252 252 253 253 253 253 253 252 251 250 249 248 247 247 247 247 246 246 245 244 243 242 241 241 240 240 241 244 245 245 245 245 245
255 254 254 254 254 253 253 253 254 254 254 254 253 253 253 252 252 251 251 251 251 251 252 252 252 253 253 252 251 250 249 248 247 246 246 246 246 245 245 244 243 242 241 240 240 240 242 243 244 244 245 245
254 254 253 253 253 253 252 252 252 252 253 253 253 253 252 252 252 251 251 250 250 250 251 251 251 252 252 252 252 252 251 249 248 247 246 245 246 245 245 244 244 243 242 241 240 239 240 242 243 243 243 243
254 253 253 253 252 252 252 252 251 251 251 251 252 252 252 252 251 251 251 250 250 250 250 250 250 251 251 251 252 252 252 251 250 249 248 246 245 245 245 244 244 244 243 242 241 240 240 241 242 242 242 242
253 253 253 252 252 252 252 251 251 251 250 250 250 250 251 251 251 251 250 250 250 249 249 249 249 250 250 250 251 251 251 251 251 251 250 249 247 246 245 244 244 243 243 242 242 241 240 240 241 242 242 241
253 252 252 252 252 251 251 251 251 250 250 250 249 249 249 250 250 250 250 250 249 249 249 249 249 249 249 249 250 250 250 250 251 251 251 250 250 248 247 245 244 243 243 242 242 242 241 241 241 242 242 241
252 252 252 251 251 251 251 251 250 250 250 250 249 249 249 249 249 249 249 249 249 249 248 248 248 248 248 249 249 249 250 250 250 250 250 250 250 250 249 248 246 245 243 242 242 241 241 241 241 242 243 242
253 253 252 251 251 251 251 250 250 250 250 249 249 249 249 248 248 248 248 248 248 248 248 248 248 247 248 248 248 248 249 249 249 249 250 250 250 250 250 249 249 247 246 244 243 242 241 241 241 242 243 243
254 254 253 253 252 251 251 251 250 250 250 249 249 249 249 248 248 248 248 247 247 247 247 247 247 247 247 247 248 248 248 248 248 249 249 249 249 249 249 249 249 248 248 247 245 244 243 242 241 242 242 243
255 254 254 254 253 253 252 251 251 250 250 250 249 249 249 249 249 248 248 248 247 247 247 247 247 247 247 247 247 247 247 248 248 248 248 249 249 249 249 249 249 248 248 248 247 246 245 244 243 242 242 243
256 255 255 254 254 253 253 252 252 251 251 251 250 250 250 249 249 249 249 248 248 248 247 247 246 246 247 246 246 247 247 247 247 247 247 248 248 248 249 249 248 248 248 248 247 247 247 246 245 244 244 243
257 256 255 255 254 254 253 253 253 253 252 252 251 251 250 250 249 249 249 249 249 248 248 247 247 246 246 246 246 246 247 247 247 247 247 247 247 247 248 248 248 248 248 247 247 247 247 247 246 246 246 245
257 257 257 256 255 254 254 253 253 253 252 252 251 251 250 250 249 249 249 248 248 248 248 248 247 247 246 246 246 246 246 246 247 247 246 247 247 247 247 247 247 247 247 247 247 247 246 246 246 246 247 247
257 257 257 256 256 255 254 254 253 252 252 252 251 251 250 249 249 248 248 248 247 247 247 247 247 247 246 246 246 245 245 245 246 246 246 246 246 246 247 247 246 246 246 247 247 246 246 246 246 246 246 247
257 256 256 256 256 255 255 254 253 253 252 252 251 251 250 250 249 248 248 248 247 247 246 246 246 246 246 246 245 245 245 245 245 245 245 245 245 245 246 246 246 246 245 245 245 246 246 246 246 246 246 246
257 256 256 255 255 255 255 254 254 254 253 252 252 251 251 250 250 249 249 248 248 247 247 246 246 246 245 245 245 245 245 244 244 244 245 245 245 245 245 245 246 246 246 245 245 245 245 245 245 245 246 246
257 257 256 255 255 255 254 254 253 253 253 253 253 252 251 251 250 250 250 249 248 248 247 247 246 246 246 245 245 245 245 245 244 244 244 244 245 245 245 245 245 246 246 246 246 245 244 244 245 245 245 246
258 258 257 256 256 255 255 254 254 253 253 253 252 252 252 252 251 251 251 250 250 249 248 248 247 247 246 246 245 245 245 245 245 245 244 244 244 244 245 245 245 245 245 246 246 246 245 245 244 244 245 245
259 259 258 257 257 256 255 255 255 254 254 253 252 252 252 251 251 251 251 251 250 250 249 248 248 247 247 246 246 246 245 245 245 245 245 244 244 244 244 244 244 244 245 245 245 246 246 246 245 244 244 245
260 260 259 259 258 258 257 256 256 255 255 254 253 253 252 251 251 251 251 251 250 250 249 249 248 248 247 247 247 246 246 246 245 245 245 245 245 244 244 244 244 244 244 244 244 244 245 246 246 245 245 244
261 261 260 260 260 259 259 258 257 257 256 255 255 254 253 252 251 251 251 251 250 250 249 249 248 248 247 247 247 247 246 246 246 246 245 245 244 244 244 244 244 243 243 243 243 243 244 245 245 246 245 245
261 261 261 261 260 260 260 259 258 257 256 256 255 254 254 252 251 250 250 250 249 249 248 248 248 247 247 247 247 247 246 246 246 246 246 245 245 244 244 243 243 243 243 243 243 243 243 243 244 244 245 245
261 260 260 260 260 260 259 258 257 257 256 255 255 254 254 253 251 250 249 249 248 247 247 247 247 246 246 246 246 246 246 245 245 245 245 245 245 244 244 243 243 243 243 243 242 242 242 242 243 243 244 244
261 261 261 261 260 259 259 258 258 257 257 256 255 254 253 252 251 250 249 248 248 247 246 245 245 245 245 244 245 245 245 244 244 244 244 244 244 244 244 243 243 243 243 242 242 242 242 242 242 242 243 243
263 263 263 263 262 262 261 260 259 258 258 257 257 256 254 253 251 250 249 248 248 246 245 245 244 244 243 243 243 243 243 243 243 243 243 243 243 243 243 243 242 242 243 242 242 241 241 241 241 241 241 242